Tucson Davis Monthan, AZ

6:21 AM MST on December 09, 2019 (GMT -0700)
Davis-Monthan Air Force Base

Weather History for KDMA - October, 2019

Change the Weather History Date:

Friday, October 18, 2019

  Actual Average Record
Temperature  
Mean Temperature 69 °F -  
Max Temperature 79 °F 84 °F 96 °F (1991)
Min Temperature 58 °F 55 °F 41 °F (1965)
Cooling Degree Days 4    
Growing Degree Days 19 (Base 50)    
Moisture  
Dew Point 43 °F    
Average Humidity 39    
Maximum Humidity 58    
Minimum Humidity 21    
Precipitation  
Precipitation 0.00 in - - ()
Sea Level Pressure  
Sea Level Pressure 29.74 in    
Wind  
Wind Speed 7 mph (WSW)    
Max Wind Speed 16 mph    
Max Gust Speed 24 mph    
Visibility 10 miles    
Events      
Averages and records for this station are not official NWS values.
T = Trace of Precipitation, MM = Missing Value Source: NWS Daily Summary

Daily Weather History Graph

Daily Weather History Graph

Search for Another Location

Airport or City:

Astronomy

Oct. 18, 2019 Rise Set
Actual Time 6:29 AM MST 5:47 PM MST
Civil Twilight 6:04 AM MST 6:12 PM MST
Nautical Twilight 5:35 AM MST 6:40 PM MST
Astronomical Twilight 5:07 AM MST 7:09 PM MST
Moon 9:20 PM MST (10/18) 10:53 AM MST (10/18)
Length of Visible Light 12h 07m
Length of Day
11h 18m
Waning Gibbous, 78% of the Moon is Illuminated
Oct 18
Waning Gibbous
Oct 21
Last Quarter
Oct 27
New
Nov 4
First Quarter
Nov 12
Full

Hourly Weather History & Observations

Time (MST) Temp. Dew Point Humidity Pressure Visibility Wind Dir Wind Speed Gust Speed Precip Events Conditions
12:58 AM 65.8 °F 48.2 °F 53% 29.67 in 10.0 mi ESE 5.8 mph - N/A   Clear
1:58 AM 66.0 °F 48.4 °F 53% 29.68 in 10.0 mi Calm Calm - N/A   Clear
2:58 AM 67.1 °F 48.9 °F 52% 29.67 in 10.0 mi Calm Calm - N/A   Clear
3:58 AM 65.7 °F 49.1 °F 55% 29.68 in 10.0 mi Calm Calm - N/A   Clear
4:58 AM 67.1 °F 50.4 °F 55% 29.68 in 10.0 mi South 6.9 mph - N/A   Overcast
5:58 AM 66.6 °F 50.9 °F 57% 29.70 in 10.0 mi SSE 5.8 mph - N/A   Partly Cloudy
6:58 AM 65.5 °F 50.4 °F 58% 29.72 in 10.0 mi SSE 3.5 mph - N/A   Overcast
7:58 AM 71.4 °F 52.3 °F 51% 29.74 in 10.0 mi SSE 10.4 mph - N/A   Partly Cloudy
8:58 AM 72.5 °F 54.3 °F 53% 29.76 in 10.0 mi South 15.0 mph 21.9 mph N/A   Clear
9:58 AM 75.2 °F 49.8 °F 41% 29.75 in 10.0 mi WSW 12.7 mph 23.0 mph N/A   Overcast
10:58 AM 77.0 °F 47.3 °F 35% 29.76 in 10.0 mi West 11.5 mph 17.3 mph N/A   Clear
11:59 AM 77.9 °F 43.9 °F 30% 29.75 in 10.0 mi NW 15.0 mph 24.2 mph N/A   Clear
12:58 PM 79.0 °F 42.1 °F 27% 29.75 in 10.0 mi WNW 12.7 mph 17.3 mph N/A   Clear
1:58 PM 79.7 °F 40.8 °F 25% 29.72 in 10.0 mi WNW 8.1 mph 20.7 mph N/A   Clear
2:58 PM 79.9 °F 37.6 °F 22% 29.73 in 10.0 mi WNW 16.1 mph 20.7 mph N/A   Clear
3:58 PM 79.5 °F 36.1 °F 21% 29.75 in 10.0 mi WNW 10.4 mph 17.3 mph N/A   Clear
4:58 PM 78.3 °F 37.4 °F 23% 29.74 in 10.0 mi NW 9.2 mph - N/A   Clear
5:58 PM 75.0 °F 37.8 °F 26% 29.76 in 10.0 mi NNW 10.4 mph - N/A   Clear
6:58 PM 70.7 °F 36.9 °F 29% 29.79 in 10.0 mi NNW 5.8 mph - N/A   Clear
7:58 PM 68.7 °F 32.4 °F 26% 29.79 in 10.0 mi NW 5.8 mph - N/A   Clear
8:58 PM 67.3 °F 31.3 °F 26% 29.79 in 10.0 mi NW 6.9 mph - N/A   Clear
9:58 PM 62.2 °F 32.0 °F 32% 29.81 in 10.0 mi SSW 5.8 mph - N/A   Clear
10:58 PM 59.7 °F 34.7 °F 39% 29.83 in 10.0 mi SSE 4.6 mph - N/A   Clear
11:58 PM 58.1 °F 35.1 °F 42% 29.83 in 10.0 mi South 4.6 mph - N/A   Clear